VK2XSE Weather Reports


Display with metric or nautical units.
time (UTC)temp
F
wind
direction
speed
MPH
gust
MPH
rain 1hr
in
rain 24hr
in
rain mn
in
humidity
%
barometer
mb
20260504050517 68 293 3.0 8.0 0.00 0.88 0.07 50 1014.9
20260504045517 68 293 3.0 7.0 0.00 0.88 0.07 51 1014.8
20260504044517 68 315 5.0 13.0 0.00 0.88 0.07 52 1014.9
20260504043517 68 293 3.0 7.0 0.00 0.88 0.07 54 1014.8
20260504042517 68 293 4.0 7.0 0.00 0.88 0.07 50 1014.9
20260504041517 68 315 3.0 6.0 0.00 0.88 0.07 52 1014.8
20260504040517 68 293 2.0 6.0 0.00 0.88 0.07 54 1014.8
20260504035517 68 293 5.0 16.0 0.00 0.88 0.07 53 1014.8
20260504034517 68 293 3.0 7.0 0.00 0.88 0.07 54 1014.9
20260504033517 67 270 4.0 10.0 0.00 0.88 0.07 55 1015.0
20260504032517 68 293 3.0 7.0 0.00 0.88 0.07 55 1015.0
20260504031517 67 270 5.0 9.0 0.00 0.88 0.07 54 1015.0
20260504030517 68 315 4.0 8.0 0.00 0.88 0.07 53 1015.1
20260504025517 67 270 3.0 8.0 0.00 0.88 0.07 55 1015.2
20260504024517 68 315 2.0 7.0 0.00 0.88 0.07 58 1015.3
20260504023517 67 315 2.0 6.0 0.00 0.88 0.07 56 1015.5
20260504022517 67 293 3.0 6.0 0.00 0.88 0.07 54 1015.7
20260504021516 67 293 2.0 7.0 0.00 0.88 0.07 55 1015.8
20260504020517 67 315 2.0 6.0 0.00 0.88 0.07 58 1016.0
20260504015516 66 315 1.0 4.0 0.00 0.88 0.07 63 1016.0
20260504014516 66 0 2.0 6.0 0.00 0.88 0.07 63 1016.2
20260504013516 65 315 1.0 3.0 0.00 0.88 0.07 68 1016.3
20260504012516 64 315 2.0 3.0 0.00 0.88 0.07 70 1016.3
20260504011517 64 315 1.0 4.0 0.00 0.88 0.07 73 1016.5
20260504010516 63 315 2.0 4.0 0.00 0.88 0.07 77 1016.5
20260504005516 63 0 1.0 3.0 0.00 0.88 0.07 81 1016.6
20260504004516 62 293 2.0 4.0 0.00 0.88 0.07 83 1016.6
20260504003518 61 315 2.0 5.0 0.00 0.88 0.07 84 1016.7
20260504002518 61 315 2.0 3.0 0.00 0.88 0.07 86 1016.8
20260504001518 61 315 2.0 5.0 0.00 0.88 0.07 87 1016.7
20260504000518 60 0 2.0 4.0 0.00 0.88 0.07 89 1016.7
20260503235518 60 0 2.0 4.0 0.00 0.88 0.07 92 1016.7
20260503234518 59 0 1.0 4.0 0.00 0.88 0.07 94 1016.7
20260503233518 58 315 1.0 3.0 0.01 0.88 0.07 95 1016.7
20260503232519 57 315 1.0 3.0 0.01 0.88 0.07 95 1016.7
20260503231518 57 338 1.0 3.0 0.01 0.88 0.07 95 1016.7
20260503230518 57 315 1.0 3.0 0.01 0.88 0.07 95 1016.8
20260503225518 56 338 1.0 2.0 0.01 0.88 0.07 95 1016.7
20260503224518 55 338 1.0 4.0 0.01 0.88 0.07 95 1016.6
20260503223518 55 315 1.0 3.0 0.00 0.87 0.06 95 1016.5
20260503222518 54 315 1.0 3.0 0.00 0.87 0.06 95 1016.5
20260503221518 54 0.0 2.0 0.00 0.87 0.06 95 1016.4
20260503220518 53 0.0 2.0 0.00 0.87 0.06 95 1016.4
20260503215518 52 0.0 2.0 0.00 0.87 0.06 94 1016.4
20260503214518 52 0.0 2.0 0.00 0.88 0.06 94 1016.3
20260503213518 52 0.0 2.0 0.00 0.88 0.06 94 1016.2
20260503212518 52 0.0 1.0 0.00 0.89 0.06 94 1016.1
20260503211518 52 0.0 0.0 0.00 0.89 0.06 93 1015.9
20260503210518 52 0.0 2.0 0.00 0.89 0.06 93 1015.9
20260503205518 52 0.0 2.0 0.00 0.89 0.06 93 1015.9
20260503204518 52 0.0 0.0 0.00 0.89 0.06 93 1015.8
20260503203518 52 0.0 0.0 0.00 0.89 0.06 93 1015.6
20260503202518 52 0.0 0.0 0.00 0.89 0.06 93 1015.6
20260503201518 52 0.0 2.0 0.00 0.89 0.06 93 1015.4
20260503200518 53 0.0 2.0 0.00 0.89 0.06 93 1015.3
20260503195518 53 0.0 0.0 0.00 0.89 0.06 93 1015.3
20260503194518 53 0.0 0.0 0.00 0.89 0.06 93 1015.4
20260503193518 53 0.0 1.0 0.00 0.89 0.06 93 1015.4
20260503192518 53 0.0 2.0 0.00 0.89 0.06 93 1015.2
20260503191517 54 0.0 0.0 0.00 0.89 0.06 93 1015.2
20260503190518 54 0.0 0.0 0.00 0.89 0.06 93 1015.2
20260503185518 54 0.0 0.0 0.00 0.89 0.06 93 1015.1
20260503184517 54 0.0 0.0 0.00 0.89 0.06 93 1014.9
20260503183517 54 0.0 0.0 0.00 0.89 0.06 93 1015.0
20260503182518 54 0.0 1.0 0.00 0.89 0.06 93 1014.9
20260503181517 54 0.0 1.0 0.00 0.89 0.06 93 1014.8
20260503180517 55 0.0 2.0 0.00 0.89 0.06 93 1015.1
20260503175517 55 0.0 2.0 0.00 0.89 0.06 93 1015.2
20260503174517 55 0.0 1.0 0.00 0.89 0.06 93 1015.2
20260503173517 55 0.0 2.0 0.00 0.89 0.06 93 1015.3
20260503172517 55 0.0 2.0 0.00 0.89 0.06 93 1015.2
20260503171517 55 0.0 2.0 0.00 0.89 0.06 93 1015.1
20260503170517 55 0.0 2.0 0.00 0.89 0.06 93 1015.1
20260503150517 56 0.0 2.0 0.06 0.88 0.06 93 1015.7
20260503130516 57 0.0 2.0 0.02 0.78 0.78 92 1015.7
20260503110518 62 315 2.0 4.0 0.31 0.69 0.69 92 1015.7
20260503081518 64 338 1.0 2.0 0.17 0.32 0.32 92 1014.5
20260503080518 64 338 1.0 3.0 0.28 0.32 0.32 92 1014.5
20260503072518 63 293 3.0 11.0 0.20 0.21 0.21 90 1015.2
20260503071518 63 270 4.0 11.0 0.14 0.16 0.16 88 1015.1
20260503070518 64 270 6.0 10.0 0.03 0.05 0.05 84 1015.1
20260503054517 71 338 1.0 3.0 0.00 0.02 0.02 69 1014.1
20260503053517 71 338 2.0 4.0 0.00 0.02 0.02 69 1014.0
20260503052517 71 338 2.0 4.0 0.00 0.02 0.02 69 1013.9